RH
8 8 8 8 9 9 8 8 7 6 5 5 5 4 4 4 4 4 4 4 4 4 4 4 4 3 3 3 3 3 3 3 3 4 4 4 5 6 6 6 5 4 6 7 11 19 23 34 45 52 67 75
10 10 10 10 10 10 9 9 8 7 7 6 5 6 5 5 5 5 5 5 5 4 4 4 4 4 4 3 3 4 3 4 3 4 4 5 7 7 7 7 7 7 7 8 10 17 21 29 49 72 89 90
12 12 12 12 12 11 11 10 10 9 8 8 7 7 7 7 6 6 6 6 5 5 5 4 4 4 4 4 4 4 4 4 4 4 4 5 8 9 9 8 10 13 13 12 14 18 22 30 46 70 85 86
14 14 13 13 13 13 13 12 11 11 10 10 9 9 9 8 7 7 7 6 6 5 5 5 5 4 4 4 4 5 5 5 4 5 5 6 10 11 12 12 15 21 24 23 22 23 25 30 42 61 71 69
15 15 15 15 15 15 14 14 14 13 13 12 12 11 10 10 9 8 8 7 7 6 6 6 5 5 4 5 5 5 5 5 5 5 6 7 11 14 15 18 21 26 32 34 35 35 32 32 39 51 56 61
17 17 17 17 16 16 16 15 15 15 15 14 14 13 12 12 11 10 10 9 8 8 7 6 6 5 5 5 5 5 5 5 5 5 6 7 12 16 17 19 26 34 39 42 46 47 45 40 36 36 45 68
19 18 18 17 17 17 17 17 17 17 17 16 16 15 14 13 13 12 11 10 9 9 8 7 6 6 6 6 5 5 6 6 6 6 6 7 12 18 20 20 26 37 42 45 48 50 50 48 44 39 41 59
20 20 19 18 19 19 19 19 19 18 17 17 16 16 15 14 13 13 12 11 10 9 8 7 6 6 6 6 6 6 6 7 7 7 7 8 10 16 21 22 24 32 38 41 43 45 47 47 47 45 43 46
23 22 20 20 21 21 21 20 20 19 18 18 17 16 15 14 13 13 12 11 10 9 8 8 7 7 7 7 7 6 7 7 7 8 8 8 9 12 18 21 22 25 30 35 37 39 43 45 46 47 46 45
26 25 23 22 22 22 23 22 21 20 19 18 17 16 15 14 13 12 11 10 9 9 8 8 8 7 7 7 7 7 8 8 9 8 8 9 9 11 14 18 21 21 24 27 31 34 37 41 43 46 46 49
30 29 27 25 24 24 24 23 22 21 20 19 17 16 14 13 12 11 10 9 8 8 8 7 7 7 7 7 8 8 8 9 10 10 9 9 9 11 12 15 18 19 21 22 25 28 31 34 36 41 45 56
34 33 31 28 26 25 25 24 23 21 20 19 17 16 14 13 11 11 9 8 7 7 6 6 6 6 6 7 7 8 9 9 10 11 11 11 10 10 11 13 15 17 18 20 23 25 28 29 32 37 39 47
37 35 32 30 28 27 27 26 24 22 20 18 16 14 13 11 10 10 9 8 7 6 5 5 5 5 5 6 6 7 8 9 10 12 13 13 13 12 11 11 13 15 16 17 19 21 25 28 31 32 36 42
39 36 33 31 30 29 28 26 23 21 18 16 14 13 12 11 10 9 8 8 6 6 5 5 5 4 5 5 5 5 6 8 9 11 13 14 15 16 15 14 13 13 14 16 17 19 21 24 27 26 33 41
39 36 35 34 33 32 28 25 21 19 17 15 14 13 12 11 10 9 8 7 6 6 5 4 4 4 4 4 4 4 4 5 6 8 12 14 16 18 19 20 19 17 15 15 16 18 20 23 27 27 30 33
41 39 39 38 35 30 25 22 20 19 17 15 14 13 11 10 9 8 7 6 5 5 4 4 4 3 3 3 3 4 4 4 5 6 8 11 14 18 20 22 23 23 22 22 20 19 19 20 25 27 28 30
45 46 44 39 32 27 24 22 20 18 16 13 11 9 8 7 5 5 4 4 4 3 3 3 3 3 3 3 3 3 3 3 4 5 6 8 11 14 18 21 23 25 26 28 29 28 27 25 24 26 28 32
52 51 43 34 28 26 23 20 16 13 11 9 7 5 4 4 3 3 3 2 3 2 3 3 3 3 2 3 3 3 3 3 3 4 5 6 8 11 13 16 19 22 25 28 31 33 35 36 35 32 32 34
53 45 35 30 26 22 17 13 11 8 7 5 4 3 3 3 2 2 2 3 2 2 3 3 3 3 3 3 3 3 3 3 3 3 4 5 5 7 8 10 12 15 19 23 26 29 33 36 40 41 41 42
47 38 33 28 21 14 11 8 6 5 4 4 3 3 3 3 3 3 3 3 3 3 3 3 3 3 3 3 3 3 3 3 3 3 3 3 4 4 5 5 6 8 10 12 15 18 22 26 30 35 38 42
40 38 35 29 22 16 13 11 8 6 5 5 4 4 4 4 4 4 4 4 4 4 4 4 4 3 3 3 3 3 3 3 3 3 3 3 3 3 3 3 3 4 5 5 6 7 9 12 14 18 21 26
42 43 41 37 34 31 28 26 22 14 7 6 5 5 5 5 5 5 5 5 5 5 5 5 5 5 4 4 4 4 4 4 4 4 4 4 4 3 3 3 3 3 3 3 3 4 3 4 4 5 7 8
48 49 50 50 48 46 43 41 37 28 19 14 11 9 8 7 7 6 6 5 5 5 5 5 5 5 5 5 5 5 5 5 5 5 5 5 4 4 4 4 4 3 3 3 3 3 3 3 3 3 3 3
55 57 60 60 59 56 52 48 45 41 36 32 27 22 17 14 12 10 10 8 7 7 6 6 6 6 6 6 6 6 6 6 6 6 6 6 5 5 5 4 4 4 4 4 4 4 3 3 3 3 3 3
60 65 67 67 65 63 60 56 52 49 47 46 42 37 31 25 21 18 16 14 11 10 8 8 7 7 7 6 6 6 6 6 6 7 7 7 7 6 6 6 5 5 5 5 4 4 4 4 3 4 4 3
61 67 69 69 69 68 67 64 59 56 54 54 52 49 44 38 33 29 25 21 18 15 13 11 9 9 8 7 7 7 7 7 7 7 7 7 7 7 7 7 6 6 6 5 5 5 4 5 4 4 4 4
56 64 69 71 72 74 75 74 71 67 62 60 58 57 56 54 50 45 39 32 26 22 18 15 12 11 9 8 7 8 8 7 8 8 8 8 8 8 8 7 7 7 6 6 5 5 5 5 5 5 5 5
54 61 67 71 76 81 82 83 82 77 71 67 64 63 63 64 64 61 55 47 39 32 26 21 17 14 11 9 8 8 8 8 8 8 8 9 9 9 9 9 8 7 7 7 6 6 6 6 5 5 6 5
57 62 65 71 80 84 83 82 80 79 78 74 70 67 65 65 65 64 62 59 54 47 39 32 24 18 13 10 8 7 8 8 9 9 9 10 10 10 10 9 9 8 8 7 7 7 6 6 6 6 6 7
59 63 67 75 83 84 81 77 76 78 80 77 73 69 66 64 61 60 58 56 55 53 49 42 34 26 17 11 9 8 8 9 9 10 10 10 10 11 11 10 10 9 9 8 7 7 7 7 7 7 8 7
62 64 70 78 83 81 78 75 76 77 77 74 71 68 65 61 57 55 53 50 48 48 48 44 37 30 21 13 10 9 9 10 10 10 11 11 12 12 12 11 11 10 9 9 8 8 8 8 8 8 9 8
Wind_Speed
31 32 32 32 33 33 33 33 32 33 33 33 33 33 33 34 35 35 34 35 35 35 35 35 35 36 35 37 36 34 36 36 34 33 33 33 33 33 34 36 38 40 41 42 42 42 42 41 40 40 38 37
32 33 33 33 33 32 32 32 32 33 33 33 33 33 33 34 35 35 35 35 35 35 35 35 36 36 35 36 35 34 36 36 35 34 33 32 30 30 32 33 35 37 38 39 39 39 39 39 38 36 33 32
31 32 32 32 32 33 33 33 33 33 33 34 34 33 33 34 35 35 35 35 35 35 35 36 36 36 35 36 35 34 35 36 35 34 34 33 30 29 29 30 31 33 34 35 36 36 37 38 38 37 34 33
32 32 32 32 33 33 34 34 33 33 34 34 34 34 34 35 35 35 35 34 35 35 35 35 36 37 36 35 34 34 35 36 35 35 34 33 30 29 27 28 29 29 30 31 32 33 35 38 40 39 39 39
32 33 33 33 33 34 34 35 34 34 34 34 34 34 34 34 35 35 35 35 35 35 35 35 36 36 36 35 34 34 35 36 35 35 34 33 30 29 27 27 27 27 28 28 29 30 32 36 39 40 40 40
32 33 33 34 34 34 34 34 34 34 34 34 34 33 34 34 34 34 35 35 35 35 35 35 35 36 36 35 34 34 34 35 35 34 34 33 31 29 27 26 26 27 27 28 28 29 30 32 36 39 39 39
33 33 34 34 34 34 34 34 34 34 34 34 34 34 34 34 34 34 34 34 34 35 35 35 35 35 35 35 34 34 34 34 34 33 33 32 31 30 28 26 26 27 27 27 28 28 29 30 32 35 38 39
34 34 34 34 34 34 33 34 34 34 34 34 34 34 34 35 34 34 34 34 34 34 34 34 34 35 35 35 34 34 33 33 33 32 32 32 31 30 28 27 27 27 28 28 28 28 29 30 31 33 35 37
35 35 35 34 34 34 34 34 34 34 34 33 33 34 34 35 34 34 34 34 34 33 34 34 34 34 34 34 34 34 33 33 32 31 31 31 31 30 29 28 28 28 29 29 29 29 29 30 30 31 33 35
35 36 35 35 34 34 34 34 34 34 34 34 33 33 33 34 34 33 33 34 34 33 33 33 33 33 33 33 33 33 33 32 31 31 31 30 30 29 29 29 28 28 29 30 30 30 30 30 30 31 32 33
36 36 36 35 35 34 34 34 34 34 34 34 33 32 32 32 32 32 32 32 32 32 32 32 32 32 32 31 32 32 32 32 31 31 31 30 29 29 29 29 29 29 29 30 30 31 31 32 31 31 31 30
36 37 36 35 35 34 34 34 33 33 33 33 32 32 32 32 32 32 31 31 31 31 31 31 31 31 31 30 30 30 31 31 31 31 30 29 29 29 29 28 28 29 29 29 30 30 31 32 32 32 33 32
35 35 35 34 34 34 34 33 33 32 31 31 31 31 31 31 32 32 32 31 31 31 30 30 30 30 30 29 29 29 28 29 29 29 30 29 29 29 29 28 28 29 29 29 29 29 30 30 32 33 32 33
33 33 33 33 33 33 33 32 31 31 30 30 30 30 30 31 31 31 32 32 31 31 31 30 30 30 30 29 29 28 28 28 28 28 28 29 28 28 28 28 28 29 29 29 29 29 29 30 31 31 31 32
31 31 32 32 32 32 31 30 30 30 29 30 30 30 30 31 31 32 32 32 32 32 31 31 30 30 30 29 29 29 28 28 28 27 27 27 27 28 28 28 28 28 28 28 29 29 29 29 30 30 31 32
30 30 30 30 30 29 29 29 29 29 29 30 30 30 31 31 32 32 32 32 31 31 31 30 30 29 29 29 29 28 28 28 27 27 26 26 26 26 27 27 27 28 28 28 28 28 29 29 29 30 30 31
28 28 28 28 27 27 27 28 28 29 29 30 30 30 30 30 30 30 30 30 30 30 30 29 28 28 28 27 27 27 27 27 26 26 26 25 25 25 26 26 26 27 27 26 27 27 28 28 28 29 29 29
25 26 26 26 26 26 27 27 28 28 28 29 28 28 28 28 28 28 28 28 28 28 27 27 26 26 26 25 25 25 25 25 25 25 25 24 24 24 24 25 25 25 26 26 26 26 27 27 27 28 28 29
23 23 24 24 24 25 25 26 26 26 27 27 26 26 26 25 25 25 25 25 25 25 25 24 24 23 23 22 22 22 22 22 22 22 22 22 22 22 23 24 24 24 24 24 25 25 26 26 27 27 28 29
20 20 21 22 23 23 23 24 24 25 25 25 25 25 24 24 23 23 23 23 23 23 23 22 22 21 20 19 19 18 18 18 18 17 17 18 18 18 19 20 21 21 22 23 23 24 24 25 26 26 27 28
18 18 20 21 21 22 23 23 24 24 25 25 25 24 24 24 24 24 23 23 23 22 22 21 20 20 19 18 18 17 16 15 15 15 14 14 14 14 14 15 16 16 17 18 19 20 21 22 23 24 25 26
16 17 18 20 21 22 23 24 25 25 25 25 25 25 25 25 24 24 24 23 23 22 22 21 20 20 20 19 18 18 17 16 15 15 14 13 13 13 12 13 13 13 14 14 14 15 16 17 18 19 20 21
16 17 18 20 21 23 25 26 26 25 25 25 25 25 25 25 25 24 24 24 24 23 23 22 22 21 21 20 19 19 18 17 17 16 16 15 15 14 13 13 13 13 13 13 13 13 14 14 15 16 16 17
17 18 20 21 23 24 25 25 25 25 25 25 26 26 26 26 26 25 25 25 25 25 24 23 23 22 21 21 20 20 19 19 18 17 16 16 16 16 15 14 14 14 14 14 14 14 14 14 15 15 16 16
18 20 21 22 24 25 25 25 25 25 25 25 26 26 27 27 27 27 27 27 27 27 26 25 25 24 23 22 21 21 20 19 19 17 17 16 16 16 17 17 16 15 15 15 15 15 14 15 15 15 16 16
19 21 22 24 25 26 26 26 25 25 25 25 25 26 26 27 27 27 28 28 28 28 28 28 27 26 25 24 23 22 21 21 20 19 18 18 17 17 17 18 18 17 17 17 16 16 16 16 16 16 16 16
21 22 23 25 26 27 27 27 26 25 25 25 26 26 26 27 27 28 28 28 29 29 29 28 28 28 27 27 25 24 23 22 21 21 20 20 19 18 18 18 19 19 19 18 18 18 17 16 16 16 17 17
22 23 24 26 27 28 28 27 26 26 26 26 27 27 27 27 27 28 28 28 29 29 29 29 29 28 28 28 27 26 24 23 22 22 21 20 20 20 19 19 19 19 19 19 19 19 18 17 17 17 17 18
24 24 25 26 28 28 27 27 26 26 27 27 27 26 26 27 27 28 28 28 28 29 29 30 29 29 28 28 27 26 25 24 23 22 21 21 21 21 21 20 20 19 20 20 20 20 19 18 18 17 18 19
25 26 27 28 29 28 27 26 26 25 25 26 26 26 26 27 28 28 29 29 29 28 29 29 30 29 28 27 27 26 25 24 23 22 22 22 22 22 22 22 21 20 20 20 20 20 20 19 19 18 18 19
25 27 28 29 29 28 27 26 25 24 24 25 26 26 26 27 28 29 30 30 30 29 28 28 29 29 28 27 26 25 24 23 23 22 21 22 22 22 22 22 22 21 21 21 21 20 20 20 19 19 18 18
Wind_Direction
298 297 297 297 297 297 297 297 297 297 297 296 295 295 295 294 293 292 292 291 291 291 291 290 288 288 287 286 286 285 283 281 281 279 277 276 275 273 270 267 264 261 259 257 256 255 256 258 263 267 265 263
297 297 297 297 297 297 297 297 297 296 296 296 295 295 294 293 292 292 291 291 291 291 291 290 289 289 288 287 287 286 284 284 283 281 280 279 277 275 271 268 265 262 260 257 255 253 253 254 257 260 258 258
297 297 297 298 299 299 298 298 297 297 296 295 295 295 294 293 293 292 292 292 291 290 289 289 289 289 289 288 288 287 286 285 284 283 282 281 280 277 273 270 267 264 261 259 256 253 250 249 251 254 255 259
301 300 301 301 301 300 300 299 298 297 296 295 295 295 294 293 293 293 293 293 291 290 289 288 287 288 288 287 288 287 286 285 284 283 282 281 281 279 275 272 268 265 264 262 259 254 250 247 248 251 254 258
303 302 302 302 301 300 300 299 299 298 297 296 295 294 293 292 292 292 293 292 292 291 290 289 287 287 287 287 286 285 285 284 284 283 282 280 280 279 276 273 270 267 265 264 262 258 253 249 248 250 252 255
303 302 302 302 301 300 300 299 299 299 298 297 296 295 293 292 291 291 291 291 291 290 290 289 288 288 287 287 286 285 285 284 283 282 281 279 278 277 275 273 270 268 266 266 264 262 259 255 251 250 250 252
303 303 302 302 301 301 300 300 300 300 299 298 297 297 295 294 293 292 291 291 290 290 290 289 289 288 287 287 286 285 285 284 284 282 280 279 276 275 275 273 269 267 266 266 265 264 262 259 255 252 252 254
303 304 304 303 302 301 301 302 301 301 300 299 299 298 297 296 296 295 294 292 291 290 290 289 289 288 287 287 287 286 285 284 283 282 280 278 275 273 273 272 270 267 265 264 264 263 262 260 259 257 257 259
303 304 305 304 304 304 304 304 304 303 302 302 301 300 299 298 297 297 296 294 293 292 291 290 289 288 287 287 287 286 285 285 284 282 280 277 275 273 272 271 269 267 265 263 262 261 261 260 259 259 259 260
303 305 306 306 307 308 307 307 307 306 305 304 303 301 300 299 299 298 297 296 295 295 293 292 291 289 288 287 287 286 285 285 285 283 281 279 276 274 272 270 269 267 265 263 261 261 260 259 259 259 260 261
304 306 307 308 309 309 309 309 308 307 306 305 304 302 301 300 299 299 298 297 297 296 295 294 293 292 291 289 287 286 286 285 285 284 283 281 279 276 273 270 269 267 266 265 263 261 260 260 260 260 260 260
306 307 308 310 310 310 310 310 308 307 305 304 303 302 301 300 300 299 299 299 298 297 296 296 295 294 293 292 290 288 287 286 285 284 284 283 281 279 275 273 271 269 268 267 266 264 262 261 261 260 260 259
307 308 310 311 311 311 311 310 309 307 306 305 304 303 302 302 302 301 301 301 300 299 298 297 296 295 295 293 292 290 289 287 285 284 283 283 282 280 278 276 274 272 271 269 269 267 265 264 261 260 261 261
309 310 311 311 312 312 311 310 310 309 309 308 307 307 306 305 304 304 303 303 302 301 300 298 297 296 295 294 293 292 290 288 286 285 284 283 282 281 280 279 276 274 273 272 271 270 269 267 266 264 262 262
310 311 311 311 312 312 312 313 313 313 313 313 312 312 311 310 308 307 306 305 304 303 302 300 299 298 296 294 294 292 291 290 288 287 285 283 282 281 280 279 278 277 276 274 273 272 271 270 270 268 266 265
311 311 311 312 313 315 316 317 318 318 317 317 316 315 314 312 311 310 309 308 307 306 304 303 302 300 299 297 295 294 292 290 289 288 286 284 283 281 280 279 278 278 277 277 276 274 273 271 270 269 269 268
311 312 313 316 318 320 322 322 321 321 320 319 319 318 317 316 315 314 313 313 311 310 308 307 305 303 301 300 298 296 294 293 291 289 288 286 285 283 282 280 279 278 278 278 277 277 276 275 273 272 271 270
313 316 318 322 325 325 325 324 324 323 323 323 323 323 322 322 321 320 320 320 318 317 315 313 311 308 306 303 301 300 298 296 295 293 292 290 288 286 285 283 281 280 279 278 277 277 276 276 276 275 274 273
317 321 324 327 328 328 327 327 327 327 327 327 327 327 328 328 329 330 330 330 328 327 325 323 320 317 314 311 308 306 305 302 300 299 297 295 293 290 287 286 284 283 282 280 279 278 277 276 276 276 275 275
322 326 329 330 330 330 331 331 332 332 331 331 331 332 333 335 336 338 339 339 338 337 335 334 331 329 327 325 322 321 319 317 315 312 310 308 305 300 295 291 290 289 287 285 283 282 281 280 278 277 277 276
325 329 331 332 333 334 336 336 336 335 335 334 335 336 336 338 340 341 341 342 342 341 340 339 338 337 337 336 336 335 335 334 332 331 330 327 323 319 314 307 303 301 297 294 291 289 287 285 283 281 280 279
326 330 331 332 334 335 336 336 335 335 335 336 336 336 336 338 339 339 339 340 339 339 339 338 338 338 338 338 338 338 338 338 338 337 337 337 333 331 329 324 321 318 314 310 307 304 301 297 294 292 289 286
325 327 330 332 332 333 333 333 332 333 333 333 332 333 335 335 335 335 336 336 336 336 336 336 336 335 335 334 334 334 334 334 336 336 336 335 333 331 330 327 324 322 319 318 316 314 312 309 306 304 301 298
323 325 328 331 332 332 332 331 330 330 330 330 330 330 328 328 328 330 331 332 333 334 334 334 333 332 332 331 330 329 329 329 330 330 330 330 330 328 327 325 324 323 321 320 320 318 317 314 312 310 308 306
321 323 326 329 330 330 329 329 329 329 330 330 329 327 324 323 323 324 326 327 329 330 331 331 331 331 330 329 327 325 324 322 321 322 322 323 324 324 324 324 324 323 322 321 321 321 320 319 318 316 315 314
319 321 324 325 326 327 327 327 327 328 329 328 327 326 326 325 323 322 322 323 324 325 327 328 328 329 328 326 325 323 321 319 318 318 318 319 320 322 322 321 321 320 320 320 321 321 322 321 320 319 319 317
315 318 320 322 324 325 325 324 324 326 326 324 325 327 328 327 325 324 322 319 319 320 321 322 323 324 324 323 322 321 320 318 317 316 316 317 318 319 319 317 317 318 318 318 319 319 320 320 318 319 318 317
311 313 317 320 323 324 324 324 325 325 325 325 327 329 329 328 328 326 324 320 318 317 317 317 318 318 318 319 319 318 317 316 315 314 314 315 315 316 316 317 316 316 316 315 315 315 316 317 316 318 318 317
308 311 315 319 323 325 325 326 327 327 327 329 330 331 332 331 330 329 328 326 322 319 317 316 316 315 315 315 315 315 314 314 313 312 311 311 313 314 315 316 315 314 313 312 311 312 313 313 314 316 317 315
307 311 314 319 324 327 328 329 330 330 331 332 332 332 333 332 331 331 331 331 329 324 320 317 315 315 314 313 313 313 312 311 310 309 309 309 311 313 314 314 313 312 311 309 309 309 310 311 312 314 314 313
306 310 315 320 326 328 330 332 332 331 331 332 332 332 332 332 331 332 332 333 332 329 324 319 316 315 315 313 312 311 310 309 307 306 306 307 309 311 312 312 312 311 310 309 308 307 307 308 309 311 311 312